Theta_e
306 297 294 294 297 299 302 303 303 304 305 304 303 300 300 301 302 306 307 304 307 303 302 303 303 301 301 302 305 307 308 304 303 303 304 304 305 306 307 308 308 306 309 311 317 322 322 322 324 326 327 328 328 328 329 329 329 329 329 327 326 326 327 325 325 325 324 323 323 324 324 323 324 324 324 324 324 325 326 327 327 327 327 327 325 325
304 296 295 299 301 302 302 304 304 304 305 302 300 299 299 301 300 305 305 300 303 300 298 301 301 301 302 304 305 306 305 305 305 303 303 304 305 305 306 307 308 308 311 313 313 320 322 322 323 326 326 324 326 327 329 328 329 329 329 328 327 327 327 326 326 325 325 324 324 324 324 323 324 323 322 323 324 325 326 326 327 327 328 327 326 324
296 294 298 301 304 305 304 304 304 304 303 302 300 300 299 301 304 307 302 302 301 300 296 299 298 299 301 304 306 306 306 306 307 306 304 303 303 304 304 305 307 307 307 310 313 314 321 322 323 325 326 326 327 327 328 328 328 328 329 328 328 327 327 326 326 326 325 325 325 325 324 324 323 325 325 324 324 324 325 325 326 327 328 328 327 326
291 295 301 304 305 303 302 303 303 302 303 302 301 299 298 303 302 297 297 300 300 299 297 299 298 300 303 305 306 307 306 307 308 308 307 306 304 303 304 305 305 306 307 306 308 311 315 322 323 324 324 325 326 325 326 327 327 328 328 328 328 328 327 326 326 324 327 327 326 326 325 325 325 324 325 325 325 325 325 325 326 327 327 328 328 327
295 300 305 304 304 303 300 301 301 300 299 302 302 301 300 301 302 301 296 299 300 299 300 297 295 296 299 299 301 305 307 307 307 307 307 307 307 307 306 305 306 306 306 306 307 309 313 319 321 323 324 325 324 325 326 327 327 328 328 328 328 328 328 327 325 325 326 326 325 326 324 323 324 324 325 325 324 326 325 325 326 326 327 328 328 328
298 302 306 303 302 303 301 299 300 300 297 299 303 303 303 303 302 303 298 298 295 295 297 296 288 293 299 300 302 305 306 305 306 306 306 307 307 307 306 305 306 307 308 308 308 308 312 316 319 322 323 324 324 324 326 327 328 328 328 328 328 328 328 328 327 326 326 325 325 325 323 322 323 322 323 323 323 324 325 325 327 327 327 327 328 329
300 304 304 302 301 301 301 299 301 302 298 297 299 305 304 304 303 303 299 300 291 289 297 299 290 289 297 298 301 304 304 305 306 305 306 307 307 308 308 307 306 307 307 307 308 308 310 312 316 319 321 323 323 324 326 327 327 328 328 328 328 328 328 328 327 326 324 325 325 325 324 323 323 322 323 326 326 326 326 327 326 327 328 328 328 328
302 302 303 303 301 300 299 297 301 302 298 296 305 305 304 303 303 303 302 298 295 301 297 297 296 288 289 296 300 301 300 304 304 304 305 306 307 307 308 308 308 308 308 308 307 308 309 310 312 315 319 322 323 324 325 326 327 327 327 327 327 328 327 328 328 326 325 324 324 324 324 323 323 323 323 325 326 327 327 327 326 326 327 328 329 328
302 299 301 300 300 299 298 301 303 304 300 300 305 306 303 303 303 302 299 296 296 291 290 291 295 287 289 295 301 302 299 298 299 302 304 305 306 307 307 308 308 309 309 309 308 308 308 309 309 313 316 320 322 323 324 325 326 326 327 326 327 327 327 327 327 326 325 324 324 325 324 323 323 324 324 324 325 325 326 327 327 327 327 327 328 328
302 303 302 303 300 297 302 303 304 304 299 304 307 307 305 304 303 302 296 295 293 288 288 291 295 289 291 296 297 299 299 299 300 302 303 304 306 306 307 308 309 309 309 309 308 308 309 309 310 310 313 317 320 322 324 325 325 326 326 325 325 326 327 327 327 326 326 325 323 324 324 323 323 323 323 324 324 325 326 326 326 327 326 326 327 328
303 306 307 304 300 303 303 304 305 304 305 306 305 301 300 299 295 292 293 291 288 286 289 295 296 293 288 295 297 296 298 301 301 303 305 306 307 308 308 308 309 309 308 308 308 308 309 310 311 310 310 314 318 320 322 323 324 324 325 325 324 326 327 327 327 326 325 325 324 324 323 323 323 323 323 323 323 324 324 324 325 326 326 326 326 327
301 302 302 304 307 306 306 302 305 306 306 303 299 296 294 290 291 289 287 289 287 286 291 296 296 297 287 291 298 302 303 303 304 302 304 305 306 307 308 309 309 309 308 308 307 307 307 307 308 309 309 310 314 317 319 321 323 323 324 324 324 325 326 326 326 326 326 325 324 324 324 323 324 324 323 323 323 324 324 324 324 325 326 326 326 326
296 298 302 303 306 305 302 300 301 304 303 301 298 295 290 284 287 283 285 283 284 285 286 292 296 292 291 296 299 301 300 303 303 304 303 303 303 304 306 306 307 307 306 307 306 306 306 306 306 306 307 307 309 314 317 319 321 322 323 323 323 323 325 326 326 326 326 325 325 324 324 324 324 324 324 324 323 324 324 324 324 324 324 325 325 326
292 299 300 300 303 305 304 296 294 294 299 298 295 292 289 284 282 281 283 285 286 288 288 290 294 289 294 296 301 301 304 304 302 301 302 302 302 303 303 304 305 305 305 305 305 305 305 306 305 306 306 307 308 311 315 318 320 322 322 323 323 323 325 325 325 325 325 326 326 325 324 324 323 323 324 324 324 324 324 325 324 324 324 324 325 325
285 286 293 298 294 304 303 301 300 297 298 297 299 296 291 289 284 281 284 281 284 286 286 291 288 286 287 290 297 302 304 306 306 306 306 305 303 303 302 303 303 303 304 304 303 305 305 306 305 306 306 306 307 308 312 316 318 321 321 322 321 322 323 324 325 325 325 326 326 326 326 324 324 324 324 324 325 325 324 325 325 325 325 324 324 325
289 290 297 303 301 304 300 304 304 300 297 299 299 299 293 290 294 285 286 287 287 285 284 286 287 289 292 297 297 297 297 297 303 304 305 305 304 301 301 302 302 302 302 303 302 303 303 303 304 305 305 306 306 306 310 314 317 318 320 321 322 322 322 323 323 325 325 325 326 326 325 325 324 322 323 323 323 325 325 325 325 325 325 325 325 325
290 288 298 301 303 302 302 304 302 303 289 296 298 290 294 298 296 289 286 286 285 284 283 287 287 291 296 297 299 298 298 297 296 300 302 303 303 302 301 302 301 302 301 301 302 302 302 301 302 304 304 305 305 305 307 310 313 316 317 318 320 321 322 323 323 324 325 325 325 325 326 326 324 323 322 323 323 324 325 325 325 325 325 326 325 324
289 289 298 297 295 301 305 305 303 303 301 298 291 295 298 300 299 292 285 284 281 279 281 286 285 286 285 284 295 297 297 297 296 297 300 301 301 300 301 301 301 301 301 302 302 302 302 302 302 302 303 304 306 306 306 306 309 312 315 316 317 319 319 320 322 323 324 324 324 324 325 325 325 324 323 323 323 324 324 325 325 324 324 325 325 324
297 286 289 295 297 300 303 302 299 302 301 298 295 302 294 286 286 288 288 282 280 279 280 283 285 285 287 288 291 291 294 296 298 298 297 298 299 300 299 299 300 301 301 302 302 302 302 302 302 302 302 303 304 305 306 306 307 309 310 313 315 316 317 319 321 322 323 324 324 325 324 324 324 324 324 323 323 323 323 324 324 324 324 324 323 322
298 288 288 295 296 298 299 298 287 294 299 297 299 297 299 293 289 288 288 287 287 280 280 281 284 283 291 292 294 294 295 297 298 298 298 299 300 300 299 300 301 301 302 303 303 303 303 303 303 303 303 303 303 303 304 304 304 305 308 309 311 312 314 316 317 319 320 322 323 324 323 323 324 324 323 323 322 322 323 323 323 323 322 323 323 323
294 296 285 290 294 298 289 294 291 294 290 290 293 292 294 291 294 294 292 289 283 281 282 280 280 284 291 296 296 297 298 298 299 299 300 300 301 301 301 301 301 302 302 302 302 302 302 302 301 301 301 302 302 301 301 302 303 304 305 306 308 310 311 312 315 317 319 320 322 321 322 322 322 323 323 322 322 322 322 321 320 322 322 321 322 322
291 290 287 288 287 288 292 298 297 297 297 294 293 292 294 291 288 286 284 292 289 284 280 281 280 287 294 298 299 299 300 300 300 300 300 301 301 300 301 300 303 303 302 302 301 301 301 300 299 299 299 300 301 301 300 301 301 301 303 305 305 307 308 310 312 315 317 318 320 320 321 321 321 322 322 322 321 321 321 320 320 319 319 320 322 321
298 291 289 286 287 289 294 298 296 299 299 297 296 293 297 295 292 288 283 286 288 289 287 286 282 286 295 296 298 299 300 300 299 299 299 300 299 299 300 300 301 301 301 302 301 300 299 298 298 297 298 298 298 300 299 299 301 301 300 301 302 304 305 307 309 311 313 315 316 318 318 318 319 319 319 319 319 318 318 318 317 317 317 317 316 317
296 288 285 286 289 290 292 294 296 295 298 295 296 295 296 292 293 291 290 290 287 287 286 285 284 287 295 295 295 292 292 295 297 297 298 299 298 298 297 298 298 300 299 300 297 298 298 297 297 297 297 297 298 297 300 301 301 301 300 300 300 302 302 304 306 309 311 312 313 314 315 316 316 315 315 315 315 314 314 315 314 313 314 314 311 314
292 287 288 283 281 283 285 289 289 289 291 292 292 294 296 297 296 294 292 289 287 288 288 286 280 287 295 296 295 294 295 296 297 296 295 296 297 298 297 298 297 297 297 299 299 298 298 297 297 298 298 297 297 297 299 300 301 301 301 300 300 300 301 302 303 305 307 308 309 309 311 311 311 312 312 313 312 311 311 310 310 309 311 309 308 310
293 288 287 281 277 276 275 277 280 284 286 290 293 293 295 295 294 291 287 288 285 288 288 286 286 292 293 294 295 295 294 295 295 294 295 295 296 297 298 298 298 297 298 297 297 297 298 299 299 297 296 298 298 298 299 300 300 300 300 300 300 301 301 302 303 304 305 305 306 307 306 307 308 310 310 309 309 308 307 306 306 306 305 310 313 310
286 287 287 286 285 284 286 287 292 294 290 287 290 292 293 295 296 295 292 289 286 288 288 289 290 291 292 293 292 292 290 292 293 293 293 294 294 295 295 296 296 297 297 298 297 298 296 296 299 300 299 300 298 296 298 299 300 299 299 299 299 299 300 301 302 302 304 304 305 305 305 306 307 307 306 306 304 304 304 305 304 307 308 309 313 312
286 285 286 286 286 288 291 291 293 294 290 290 291 291 293 293 294 292 289 287 293 289 284 291 293 290 292 295 296 296 295 293 294 294 294 293 295 296 297 297 297 295 294 294 295 296 297 296 296 295 297 298 298 297 297 297 299 300 299 299 298 297 298 301 301 301 302 302 303 304 304 303 301 301 303 303 303 305 304 305 306 307 308 308 311 311
286 285 287 287 287 289 290 291 294 293 293 292 292 293 292 293 293 290 291 293 293 288 286 292 293 291 293 296 297 298 298 297 293 295 295 296 296 296 295 294 293 294 295 295 295 296 295 295 295 297 298 298 296 296 296 296 297 296 296 296 298 297 299 298 299 299 300 300 301 302 302 300 300 302 300 300 302 303 303 304 304 304 306 306 308 308
288 285 286 286 286 287 288 289 292 292 292 293 292 293 293 293 293 293 293 294 294 292 294 294 293 293 295 297 298 298 298 298 297 294 294 293 294 293 293 294 294 296 296 297 297 297 297 298 296 298 298 296 297 296 295 295 296 297 298 298 298 298 296 297 297 298 298 299 300 299 299 299 299 299 298 301 303 304 304 305 304 305 304 305 305 304
289 285 288 285 285 286 287 288 289 291 291 290 292 293 293 293 293 294 294 295 294 293 294 294 292 292 297 300 299 300 299 297 294 292 293 293 293 293 293 294 294 295 295 298 297 297 298 297 297 297 297 297 297 297 297 297 296 296 296 296 296 297 296 296 296 297 297 298 297 298 298 298 298 297 300 302 303 303 303 304 302 301 301 301 300 301
289 285 286 285 283 284 286 286 286 287 288 289 290 291 292 292 290 292 292 295 293 291 292 292 290 291 297 300 299 299 298 299 299 294 293 293 293 293 293 293 293 294 296 297 298 298 298 298 297 296 297 297 297 297 298 297 297 296 296 297 297 296 295 295 295 296 296 296 296 297 297 295 296 297 297 300 302 301 300 299 299 299 298 297 295 296
286 285 284 284 282 283 286 286 286 286 285 283 286 290 292 293 294 294 295 296 295 295 291 288 290 296 298 298 296 297 299 299 299 300 297 295 295 295 295 295 295 295 295 297 297 297 297 297 297 297 295 295 298 299 299 299 298 297 297 297 296 295 295 295 295 295 296 295 296 296 295 296 297 298 299 299 299 298 297 296 296 296 295 294 293 292
287 286 284 286 281 284 285 285 286 283 277 280 292 296 295 292 293 291 291 294 296 296 294 296 296 298 298 297 297 297 297 299 301 301 300 300 299 297 296 296 296 296 296 297 297 296 296 299 297 297 296 296 297 299 299 299 299 298 297 297 294 294 296 296 295 295 296 295 297 298 298 298 298 298 297 296 295 295 294 294 295 293 292 291 290 291
286 285 284 285 282 281 285 284 282 276 279 292 295 297 297 297 296 294 295 295 296 297 297 296 297 297 298 299 298 299 299 299 301 302 302 302 301 301 299 297 296 296 297 297 296 295 295 297 297 295 294 296 295 294 297 297 296 295 294 295 295 294 296 295 295 295 295 296 298 298 298 298 297 296 295 294 294 293 293 293 291 291 290 291 291 291
285 285 285 284 284 284 281 281 275 278 286 290 293 297 298 298 297 295 293 295 296 297 297 296 297 299 299 299 299 300 299 299 298 298 301 302 302 301 297 298 299 298 297 298 297 297 296 295 297 297 297 295 292 294 296 296 293 295 294 292 294 292 292 294 295 296 295 295 296 296 296 295 294 294 293 293 292 292 292 291 291 291 290 290 290 289
289 286 285 281 285 277 278 279 280 287 285 286 288 289 294 291 292 291 287 291 297 298 297 297 298 299 299 299 300 299 296 295 294 299 301 301 300 300 301 300 299 298 298 298 297 297 298 297 296 297 293 292 292 291 294 292 293 292 291 292 291 291 290 291 294 294 294 294 294 294 294 294 294 293 292 291 291 291 291 290 290 289 290 290 289 290
292 286 286 282 281 283 278 276 277 277 275 283 290 295 298 298 298 297 293 290 297 298 299 298 297 298 298 299 299 297 295 292 293 296 301 300 299 300 298 300 299 299 299 298 297 297 296 295 293 293 296 292 292 291 289 291 293 292 291 290 289 290 291 292 293 293 293 294 293 293 293 294 293 292 291 291 291 290 289 289 289 289 290 291 290 289
291 290 288 284 281 283 280 276 276 275 279 286 288 292 295 297 297 294 289 286 295 298 299 299 298 298 298 298 297 293 291 291 293 297 300 299 299 300 301 300 301 301 299 298 298 298 297 295 293 292 290 290 292 289 290 290 291 293 292 290 290 289 291 291 291 291 293 293 293 293 293 293 293 292 291 291 290 290 289 289 290 289 289 289 289 289
287 287 286 282 281 281 280 279 276 280 280 285 291 290 295 297 298 291 282 283 295 298 298 298 298 298 298 298 295 293 293 291 293 298 297 300 301 301 301 302 302 300 298 298 296 295 294 291 290 290 291 291 292 289 291 290 291 291 291 290 290 290 291 292 291 290 289 291 292 292 292 292 291 291 291 290 290 289 290 289 289 289 289 289 289 289
283 284 285 280 282 282 281 279 281 282 287 290 290 291 293 297 294 284 280 288 296 297 299 299 298 299 299 297 296 294 297 300 301 297 298 300 299 300 300 301 302 301 301 300 297 291 291 291 293 293 292 293 291 289 291 291 291 290 290 289 290 291 293 290 288 289 290 290 291 291 291 291 291 290 289 290 289 289 289 289 289 288 289 289 289 288
282 284 284 285 282 280 281 279 279 283 289 292 292 295 295 292 282 282 293 296 296 297 298 299 299 299 298 297 297 298 300 301 301 295 291 295 298 299 299 299 299 298 297 296 293 292 293 291 291 291 289 289 289 289 290 291 291 290 289 289 291 293 288 288 289 289 290 290 290 290 290 290 289 289 289 289 289 289 288 288 288 288 288 289 288 287
283 281 279 280 283 284 283 279 279 276 286 295 292 290 294 288 289 296 295 293 294 293 296 295 298 299 298 298 299 300 300 300 299 299 298 295 292 295 296 296 295 295 295 293 292 291 294 293 292 291 291 289 288 289 289 290 290 290 289 290 292 290 289 288 288 289 290 289 289 289 288 288 288 288 289 288 288 288 287 287 287 287 288 287 287 287
289 282 281 283 287 279 280 278 278 285 290 295 294 288 293 295 294 294 297 293 293 293 293 294 294 296 298 298 298 298 299 299 298 298 296 297 299 298 297 294 293 293 294 295 297 295 292 293 292 291 288 286 287 288 288 289 290 289 289 290 286 288 288 288 288 288 288 288 288 288 288 287 287 288 288 288 288 288 287 287 287 287 288 287 287 287
288 285 287 283 288 285 282 285 289 292 293 297 297 296 295 298 299 297 293 297 296 291 292 294 295 294 295 297 298 298 297 297 299 299 298 298 298 298 298 298 298 296 294 293 293 290 290 292 291 289 286 284 285 284 286 286 289 287 288 285 287 287 287 287 287 287 287 287 287 287 287 287 287 287 287 287 288 287 287 286 287 287 287 287 287 287
291 291 291 288 287 291 292 292 292 292 292 294 295 297 297 298 299 297 294 291 290 293 292 294 293 295 294 295 296 295 297 298 297 297 297 297 297 298 296 296 297 297 291 291 290 289 289 288 288 288 286 283 282 284 284 284 286 287 285 284 285 285 286 286 286 286 286 286 287 286 287 287 287 287 287 287 288 288 288 287 287 287 287 287 287 287
287 290 289 286 287 287 282 290 290 290 292 293 295 296 294 297 298 298 296 295 292 291 291 290 292 292 293 293 296 297 296 296 296 296 296 296 295 295 295 295 295 295 292 290 289 288 287 287 288 287 287 285 280 282 282 282 282 284 284 284 284 286 286 286 286 286 286 286 286 286 287 287 287 287 287 287 288 288 287 288 288 287 287 288 288 287
284 291 287 287 287 286 285 290 291 293 294 294 295 294 295 297 297 296 298 298 293 288 288 288 288 288 287 290 292 294 295 294 291 293 292 291 293 294 294 293 293 290 287 287 286 287 287 288 288 288 287 285 282 281 282 282 282 283 284 283 285 286 286 286 286 285 285 286 286 287 287 287 285 286 287 287 287 287 287 288 288 288 288 288 288 288
286 291 285 288 286 288 289 291 291 292 293 292 292 295 298 299 298 296 293 291 289 289 288 287 287 288 288 291 291 290 291 292 292 290 290 290 290 290 291 291 289 288 287 286 285 287 288 288 287 287 286 283 281 281 280 279 279 281 282 283 285 286 286 285 285 285 285 286 286 286 286 286 287 287 287 287 287 287 287 288 288 288 287 287 288 289
287 286 287 288 285 285 286 288 290 287 286 291 293 294 296 297 296 294 292 288 288 291 291 291 288 285 287 288 290 290 290 291 290 289 290 290 290 290 287 286 286 287 286 285 284 283 283 283 285 285 284 282 281 280 279 278 280 281 282 284 285 286 285 285 284 284 284 285 286 286 286 286 287 286 287 287 287 286 285 284 285 286 288 287 287 287
286 287 288 285 285 285 290 293 294 293 292 294 295 296 296 293 293 292 292 294 294 293 293 292 291 290 288 288 287 288 288 290 291 289 289 289 289 288 289 288 287 286 285 283 284 282 283 283 283 283 282 280 280 278 277 278 280 281 282 284 284 285 284 284 284 284 284 284 285 285 286 286 286 286 286 286 286 286 285 285 284 284 285 285 286 286
Wind_Speed
8 9 10 16 12 10 11 15 14 9 12 11 11 10 13 12 10 7 8 3 11 8 12 13 14 13 14 12 12 11 9 9 10 11 10 8 8 8 7 8 8 9 10 6 8 12 12 11 10 10 9 10 11 11 12 13 13 14 14 13 14 12 11 10 9 9 10 10 8 7 9 9 9 9 8 9 8 8 8 8 9 9 9 10 11 10
9 8 15 14 12 16 15 14 15 12 10 11 9 10 11 11 11 7 4 3 4 4 3 10 10 14 14 12 11 9 10 13 14 13 11 10 9 8 10 11 13 9 3 6 6 10 11 11 10 10 9 9 12 12 13 16 16 16 15 15 14 12 12 13 12 11 11 10 10 10 9 7 7 8 9 9 9 8 7 9 9 9 8 10 10 10
11 20 19 13 11 11 13 14 13 14 10 10 9 9 9 10 7 6 4 5 5 2 7 5 10 12 14 15 13 12 11 10 12 11 11 13 11 10 10 12 12 10 9 8 10 8 10 12 12 12 12 12 14 14 15 16 14 14 15 14 14 14 14 13 13 12 12 11 10 9 6 8 5 5 6 5 5 6 6 7 9 9 9 9 9 10
13 16 8 14 13 13 13 14 13 12 10 9 10 10 12 7 8 7 6 8 7 7 2 5 10 10 11 11 12 9 12 13 13 11 10 9 11 13 15 12 11 12 13 12 11 12 11 12 13 12 12 13 12 12 12 12 14 13 14 14 14 15 15 13 13 13 12 11 9 8 6 6 6 6 5 6 5 7 8 9 7 7 9 10 9 10
11 1 13 15 14 14 16 15 15 12 13 11 9 9 7 8 10 6 3 4 3 4 2 7 11 12 11 13 12 11 13 12 10 9 11 10 10 11 8 9 13 15 13 14 12 11 12 12 14 15 15 13 13 14 14 15 14 12 16 16 15 14 15 13 13 13 10 8 8 7 5 3 4 5 7 8 10 11 10 10 10 10 8 9 10 10
7 10 16 18 16 15 15 17 19 15 12 12 13 12 9 8 8 9 5 6 1 4 7 4 4 11 9 19 20 17 12 15 14 15 14 14 14 12 12 16 14 12 12 15 15 14 14 14 13 13 14 15 15 16 15 15 15 14 14 14 13 12 12 14 15 15 12 11 11 10 10 10 9 11 11 13 14 12 13 15 10 9 10 9 8 10
7 12 17 18 19 16 17 15 18 15 12 11 13 14 9 9 10 8 7 3 5 5 1 9 9 11 4 6 11 13 14 15 13 17 18 17 16 14 15 14 14 15 14 12 11 10 11 14 15 16 16 16 16 16 14 14 15 16 14 15 16 14 13 14 15 17 14 13 12 14 14 14 14 13 12 10 8 10 10 8 10 11 10 11 11 9
9 15 17 17 18 19 16 16 15 18 11 11 5 12 9 10 5 2 3 5 3 2 2 2 3 9 13 11 5 4 3 11 12 14 16 14 12 13 14 14 14 14 14 13 15 15 13 13 16 18 18 16 17 15 13 14 14 16 16 16 16 14 14 13 13 17 17 15 14 14 14 13 13 14 13 11 10 8 8 10 11 10 10 12 12 11
21 16 18 21 19 15 16 10 9 16 12 3 6 14 14 8 5 2 1 2 1 3 8 6 3 3 11 1 13 13 12 7 5 6 10 11 11 14 15 14 13 14 15 15 14 15 18 17 16 16 16 17 15 14 15 16 15 16 16 16 15 15 14 13 15 15 17 16 15 15 13 13 13 14 12 9 10 10 9 11 11 12 11 11 13 13
6 14 16 16 14 13 11 13 9 16 14 4 4 7 6 4 5 1 3 1 1 1 14 9 8 7 19 5 2 7 13 14 11 9 7 7 12 14 14 14 16 15 14 13 15 14 14 14 14 12 12 12 16 15 14 14 14 15 14 15 16 16 14 13 15 15 16 17 14 14 14 16 14 12 10 10 10 12 11 12 12 12 11 11 11 13
5 8 12 11 13 11 14 13 12 14 10 4 5 6 5 3 1 4 6 2 3 8 20 9 11 9 12 8 11 8 10 8 7 8 9 10 15 14 13 15 16 14 11 10 12 12 12 12 13 12 12 13 12 12 13 13 14 13 14 15 16 16 14 15 16 16 17 16 15 15 16 17 15 15 13 12 12 10 10 12 12 11 11 10 11 11
7 8 9 7 12 9 12 11 13 8 9 7 3 5 7 5 4 5 2 2 7 15 10 11 11 10 11 3 5 8 9 15 15 13 13 14 15 14 12 13 12 9 10 9 10 11 11 8 9 10 12 11 12 11 13 14 13 13 13 14 16 15 15 15 15 16 16 15 16 15 15 16 16 14 13 14 14 13 13 12 12 10 9 11 11 11
12 14 10 10 12 16 13 10 9 10 8 9 7 9 12 4 4 6 3 9 13 13 2 2 11 8 22 17 10 11 4 7 9 10 9 7 7 9 9 9 8 7 7 8 8 7 7 9 10 9 11 9 9 12 13 13 13 12 12 15 17 17 17 16 15 16 17 16 16 16 17 16 14 14 13 14 14 12 12 11 10 10 11 10 10 12
12 9 16 12 9 14 15 14 8 9 11 14 15 14 13 9 9 10 7 2 4 2 3 4 1 9 10 10 15 18 17 10 6 6 7 8 9 8 6 5 5 6 6 6 6 7 7 9 8 8 9 10 9 10 13 12 12 12 12 14 17 18 16 15 15 16 16 17 17 17 16 15 13 13 14 13 13 12 11 10 11 11 11 11 12 11
11 15 14 16 11 13 16 16 19 13 18 16 9 14 12 10 5 8 7 11 12 4 3 3 2 8 7 3 1 12 20 20 18 17 14 17 10 9 6 4 4 4 3 4 5 6 7 7 8 8 8 8 9 10 11 11 12 12 13 14 15 15 15 15 15 14 16 16 17 16 15 14 12 13 13 12 11 12 12 11 11 11 10 10 11 11
22 11 9 24 10 20 19 12 11 6 5 10 8 5 9 12 5 9 3 5 5 2 3 4 9 1 7 4 5 3 1 4 12 17 18 22 12 6 7 7 7 6 6 5 5 5 5 6 6 6 6 7 7 8 9 11 12 13 13 13 15 16 16 16 16 15 16 16 15 16 15 16 15 12 11 11 11 11 12 12 12 12 11 11 10 9
7 16 12 17 10 20 22 16 12 14 13 11 8 14 9 3 6 1 3 1 3 3 12 3 8 15 11 16 16 12 9 7 5 10 14 15 13 10 10 10 8 7 6 6 7 8 7 6 6 6 7 7 7 7 9 11 12 13 13 13 13 14 13 14 15 15 14 14 13 14 15 14 14 15 15 15 15 14 11 11 11 11 12 10 10 9
14 3 14 19 15 9 17 16 11 17 4 9 14 8 4 3 2 4 6 2 3 6 7 9 17 15 4 13 5 21 20 13 7 8 12 15 9 10 13 10 9 7 7 7 8 8 9 9 9 9 7 8 9 10 10 12 11 12 13 13 14 14 15 13 14 14 14 14 14 14 14 15 15 15 15 14 13 11 10 10 10 10 10 12 10 9
9 2 3 6 15 9 4 7 6 8 6 9 9 10 13 7 8 5 2 13 8 10 6 6 11 11 9 14 1 2 12 14 13 11 9 9 11 13 11 8 6 7 7 7 8 9 8 8 9 10 10 10 9 9 10 11 11 10 11 12 14 15 15 14 13 13 13 12 11 11 14 15 14 13 12 12 11 10 12 13 11 10 10 8 9 9
10 6 1 3 11 6 8 12 15 11 6 5 4 11 7 2 8 12 12 4 6 8 5 12 7 11 10 11 9 9 6 12 16 15 13 15 12 12 8 7 9 9 9 9 9 8 8 8 8 9 9 9 9 8 7 7 6 8 10 10 10 10 10 10 11 10 11 12 12 12 11 11 12 12 12 11 11 11 12 12 11 10 8 10 8 9
10 9 8 6 3 9 11 11 15 17 17 8 11 11 8 6 0 5 4 9 4 5 10 6 10 7 8 8 9 13 11 10 14 15 15 14 12 10 7 6 6 8 9 8 7 6 7 6 6 5 5 5 6 6 5 6 8 9 7 8 9 11 10 10 12 12 12 11 12 11 12 12 11 12 11 9 10 11 11 9 9 8 8 6 9 8
1 7 12 6 8 11 7 9 17 22 18 16 16 16 17 15 11 15 11 4 6 3 4 7 17 9 2 3 9 11 14 15 13 14 12 10 9 7 7 5 2 3 3 5 5 5 5 6 5 3 2 1 2 3 5 5 5 6 8 9 9 8 9 10 10 10 10 9 10 11 11 10 8 9 9 10 11 12 11 10 8 7 6 8 8 8
4 0 3 12 13 13 9 6 1 7 15 15 15 13 12 9 5 8 12 9 4 11 4 7 5 17 3 1 0 7 8 10 8 7 6 6 7 5 3 3 2 3 3 3 4 4 4 5 4 4 5 5 5 4 5 5 6 6 5 6 6 7 8 7 7 6 6 7 7 9 8 7 8 8 9 10 9 10 10 9 8 8 9 9 7 6
8 3 2 1 3 2 4 0 2 1 9 8 9 4 11 13 13 9 8 6 9 5 10 7 13 15 4 1 2 4 3 2 2 4 5 2 1 3 3 3 2 2 3 4 5 5 5 5 4 4 4 5 5 6 7 6 5 5 5 5 5 7 6 5 5 6 6 6 7 7 7 8 8 8 8 9 9 9 8 8 8 7 8 7 6 7
9 3 6 6 3 3 1 2 2 3 1 9 11 10 11 12 17 12 5 3 9 13 15 10 18 15 3 7 1 4 2 1 1 0 2 3 3 3 2 3 4 4 4 4 5 5 5 5 6 6 6 6 6 6 6 7 7 7 7 6 7 6 6 5 5 5 6 6 8 7 8 8 8 9 9 10 9 9 8 8 7 6 7 6 5 5
6 2 10 10 13 13 12 14 15 11 14 7 11 19 20 22 23 15 16 11 15 15 18 14 14 14 2 1 3 3 2 1 2 3 3 4 5 4 3 2 3 4 5 6 5 5 6 7 6 6 6 6 7 7 6 6 6 6 6 8 7 8 7 8 7 8 7 6 7 7 7 7 7 9 10 9 8 8 6 6 6 5 5 6 6 5
2 3 4 4 11 15 13 9 8 16 10 10 6 15 19 20 22 20 12 14 19 10 15 14 15 14 12 6 5 4 4 4 4 4 4 5 5 4 4 4 4 4 4 5 5 6 5 5 7 7 6 6 6 6 6 7 7 6 6 7 6 6 7 7 7 6 7 7 7 8 8 8 8 8 7 7 6 5 5 5 6 6 6 6 7 7
1 3 4 6 13 11 10 5 0 10 17 14 17 22 21 20 17 17 15 18 12 12 18 5 12 13 23 18 16 10 7 5 6 6 7 5 5 6 6 3 3 3 5 5 5 6 7 7 6 6 7 6 6 6 5 6 7 7 7 8 6 6 6 6 7 7 7 7 8 8 8 6 6 6 6 6 6 6 6 6 6 6 6 5 6 6
3 7 4 6 11 14 13 14 1 6 13 19 23 23 25 23 20 22 22 20 18 17 19 20 22 23 25 26 22 18 12 7 5 6 8 9 5 4 3 2 3 4 5 5 6 6 6 6 6 6 6 6 5 6 6 6 6 5 5 5 6 6 7 7 7 7 7 7 8 8 6 5 5 5 5 5 5 5 5 5 5 4 4 5 5 5
2 7 3 6 9 10 14 13 11 10 12 13 17 19 22 23 25 23 22 23 21 17 17 19 17 23 25 28 19 12 6 6 6 3 2 5 6 6 5 4 5 5 5 5 5 6 6 6 6 6 6 6 7 7 6 6 6 6 8 7 7 7 5 7 7 7 7 7 7 6 5 6 5 5 5 5 5 5 4 4 4 4 4 5 5 5
4 2 8 4 4 11 13 11 10 13 12 16 17 20 21 21 21 23 21 20 19 19 18 18 22 24 23 23 17 8 6 3 1 4 5 7 6 6 6 7 7 6 5 5 5 5 5 5 5 5 6 6 7 8 8 8 7 6 6 5 6 7 6 6 6 6 7 7 5 6 6 5 5 5 5 4 4 3 4 4 4 4 4 5 5 5
5 4 2 2 5 11 7 11 12 12 14 17 20 22 22 21 21 20 20 20 19 22 25 26 22 20 23 25 14 6 6 11 13 7 6 6 6 6 8 9 8 8 7 6 5 5 5 5 5 6 6 7 7 7 7 7 7 7 8 7 8 7 6 6 6 6 5 5 5 5 6 5 5 5 4 4 4 4 4 4 4 4 5 4 5 5
6 1 2 3 6 10 4 10 12 14 13 15 18 21 23 24 23 23 24 24 25 22 19 19 22 27 31 11 3 12 16 14 11 12 10 8 8 10 11 10 9 8 6 5 5 5 5 6 6 7 7 7 8 8 8 8 8 9 9 8 7 7 7 6 6 6 6 6 6 6 6 6 6 5 5 5 5 5 5 5 5 5 5 5 4 3
7 6 3 1 5 6 3 9 7 9 16 13 6 20 26 28 28 26 24 27 29 23 19 21 24 23 16 10 13 18 13 13 16 12 8 11 11 10 9 8 9 7 6 6 6 6 6 6 5 7 8 8 8 9 8 9 9 8 7 8 7 8 7 8 7 7 7 7 7 7 6 6 7 7 7 6 6 6 6 6 6 4 4 3 3 4
9 8 7 4 5 7 5 4 8 16 14 5 9 11 14 19 22 26 24 26 26 23 20 18 19 23 26 17 13 14 8 7 10 16 18 17 15 13 11 9 7 6 8 8 7 6 6 7 6 6 5 7 7 5 6 6 5 6 7 8 9 7 8 7 7 7 7 7 6 6 6 7 6 7 6 6 6 6 6 6 5 5 4 5 5 5
8 9 4 3 5 8 10 5 8 4 3 8 3 6 8 10 14 16 22 22 22 22 22 27 31 32 24 11 11 13 9 7 6 8 14 16 14 11 7 10 12 10 10 10 9 7 7 8 9 9 9 5 4 6 6 6 5 7 6 6 8 7 6 7 7 6 5 6 6 6 6 6 6 6 5 6 6 6 6 6 7 7 5 4 3 3
11 6 7 7 7 10 9 9 12 8 9 1 1 7 11 15 18 19 18 25 30 27 25 24 26 27 21 16 18 9 2 3 7 14 16 15 11 10 13 12 8 7 9 8 8 9 9 9 9 10 6 5 6 6 7 7 7 6 6 6 5 6 5 6 6 7 7 7 7 7 7 6 6 6 5 5 6 6 6 6 5 5 4 5 5 5
11 11 6 9 6 9 10 11 9 9 15 6 13 6 16 19 20 20 15 20 14 15 16 18 26 29 24 19 18 7 1 5 15 20 19 9 6 7 8 8 8 11 12 12 9 9 9 9 7 6 10 8 8 7 5 6 9 8 6 5 5 6 6 7 9 7 7 8 7 7 7 7 7 7 7 6 6 5 4 4 4 4 5 6 6 5
12 11 9 13 8 6 9 11 9 10 13 6 1 3 7 8 8 4 1 17 17 11 16 21 23 25 21 16 11 7 5 12 20 24 10 16 11 12 11 12 16 15 12 11 12 13 14 11 9 8 6 7 8 6 8 7 7 8 8 7 6 5 6 9 9 9 10 9 7 7 7 7 8 8 8 8 8 8 7 7 6 4 5 3 4 4
15 12 11 13 14 12 10 9 11 5 11 8 6 4 8 8 6 8 12 14 21 20 16 16 22 26 21 15 7 9 12 18 23 18 9 16 14 14 16 19 18 13 12 14 13 11 9 7 5 5 6 8 9 8 10 9 8 8 8 8 7 7 9 12 9 5 4 5 6 7 7 7 7 7 8 8 7 6 7 5 5 5 5 4 4 4
13 11 14 18 13 15 15 11 6 9 11 13 7 3 2 3 7 12 16 17 9 4 11 13 18 20 15 11 9 13 20 24 22 4 13 12 14 15 16 18 19 18 18 18 14 8 6 7 10 11 11 11 7 8 8 9 9 8 8 7 8 10 13 6 5 6 6 5 6 7 7 6 6 7 5 5 5 4 4 4 5 5 5 5 4 4
11 10 9 13 17 15 11 12 13 10 15 10 8 9 7 9 8 13 19 9 8 12 13 17 19 19 12 12 13 16 18 18 20 7 6 9 14 16 16 18 16 13 12 9 10 8 8 7 7 8 7 6 8 9 9 10 10 9 7 7 9 13 5 7 7 8 8 7 7 6 6 5 5 5 6 4 5 5 4 3 4 5 5 4 4 5
12 10 9 13 9 9 10 12 10 14 9 13 10 7 10 11 16 16 4 2 5 4 9 10 14 14 10 13 17 19 21 19 17 14 13 9 7 11 13 13 12 11 11 8 7 9 11 10 11 11 11 8 8 8 9 10 10 9 8 10 13 6 7 7 8 8 8 7 6 6 5 5 6 5 5 5 5 6 5 4 4 4 4 5 4 4
12 11 9 10 10 13 13 13 12 10 22 8 15 11 14 15 3 2 7 10 8 7 5 8 8 9 10 13 13 14 17 17 16 15 11 14 17 17 14 11 10 11 11 13 16 15 12 12 11 10 7 5 6 7 7 11 11 9 9 11 2 6 7 8 7 8 8 7 7 7 6 6 6 6 5 6 6 6 7 5 5 5 4 5 5 5
13 13 10 13 12 13 11 10 8 18 6 11 18 11 5 13 13 12 6 10 10 7 7 9 7 7 9 10 12 13 14 14 17 18 15 16 19 20 20 18 16 15 13 13 12 9 9 12 11 8 5 4 5 5 6 5 9 7 7 3 6 7 8 8 8 8 8 8 8 8 7 7 6 6 6 6 7 7 6 7 6 6 4 5 5 5
15 19 12 11 13 13 15 13 13 16 12 12 7 10 14 17 18 14 11 8 6 7 8 8 7 8 8 10 11 11 14 16 16 15 13 15 17 18 12 12 14 13 8 9 8 9 10 7 6 7 7 4 4 5 5 4 6 9 6 5 6 8 9 9 9 8 8 8 8 8 8 9 8 7 7 6 5 7 7 8 7 6 6 5 5 5
8 12 13 12 6 12 14 13 15 16 14 20 15 9 7 10 14 14 15 13 7 6 6 5 6 6 8 7 12 15 15 15 15 15 13 13 15 14 13 13 15 15 11 11 9 8 6 6 7 8 9 9 5 5 5 5 4 6 8 7 8 9 10 10 10 9 8 8 8 8 8 9 8 7 7 6 5 5 6 6 6 7 6 6 6 5
9 14 13 18 14 15 12 12 21 21 21 18 13 11 11 16 15 13 15 13 8 5 5 7 5 6 4 6 10 13 14 10 7 8 6 7 9 11 11 11 12 8 6 6 7 8 8 9 11 11 10 10 7 6 6 6 7 8 9 9 10 11 11 11 11 11 10 10 8 8 8 8 9 9 7 6 7 7 6 5 6 7 7 7 7 7
7 14 18 12 16 17 8 15 13 16 23 17 10 15 18 18 16 13 8 6 6 7 8 8 6 7 6 10 9 7 8 11 9 6 6 8 8 9 11 10 8 9 7 7 8 10 13 12 10 9 10 9 7 7 6 6 5 6 9 10 11 12 13 11 11 10 11 9 8 8 7 7 8 7 7 7 6 4 4 6 6 5 4 3 4 5
6 17 6 11 17 15 16 14 10 14 13 15 19 19 22 20 12 9 7 6 8 11 11 10 9 6 7 8 10 9 10 11 7 5 7 9 9 9 7 6 7 8 7 5 5 5 4 5 7 9 9 8 7 7 7 7 6 5 5 8 10 12 14 13 11 11 10 9 8 8 8 7 7 6 6 7 7 7 4 5 5 4 5 4 4 5
17 13 7 16 15 13 12 18 20 19 17 18 18 19 18 8 7 8 10 13 13 12 11 12 11 8 8 11 6 6 8 9 10 6 6 7 9 8 8 9 9 7 7 7 8 5 6 6 7 9 9 8 7 7 7 6 6 6 5 6 7 9 12 13 11 10 9 9 8 8 8 8 7 7 6 6 6 6 6 5 3 6 7 6 4 5
Wind_Direction
156 173 190 202 197 179 191 191 188 199 183 189 189 191 210 218 235 227 230 161 178 208 214 218 229 234 241 239 239 233 227 215 218 219 219 223 225 229 236 240 240 215 211 191 186 186 195 195 188 186 183 183 185 184 182 184 183 181 180 173 183 188 186 189 189 187 190 195 200 206 201 194 190 196 192 195 192 189 192 193 197 195 189 189 190 191
177 202 214 209 179 177 189 194 197 210 202 195 191 202 216 219 234 220 215 151 212 203 233 221 241 247 251 247 238 234 221 223 219 216 216 221 223 225 230 237 240 240 211 191 191 189 190 190 186 180 182 181 183 193 186 190 190 184 181 178 182 181 189 193 194 187 190 197 200 197 201 194 190 192 197 197 196 196 187 192 200 200 194 189 190 191
198 209 210 188 172 178 184 195 204 210 203 199 207 209 227 225 234 255 131 177 138 159 260 261 245 243 241 245 239 234 232 231 231 223 206 211 218 222 224 230 234 237 233 202 203 191 187 190 186 182 187 190 192 192 192 194 189 185 185 186 178 183 188 193 192 189 193 193 197 196 196 192 196 201 200 200 196 190 202 203 199 200 198 190 190 191
201 225 181 168 177 176 182 190 196 213 233 218 207 210 215 202 192 212 184 171 184 164 215 211 252 261 266 260 256 234 225 229 233 233 230 208 208 211 218 216 224 227 228 220 204 204 193 187 187 187 192 193 190 190 197 194 191 191 192 192 184 184 189 191 193 196 193 188 187 190 184 190 190 188 185 195 190 198 209 220 212 209 200 197 193 189
208 118 155 165 177 181 180 184 193 201 218 227 224 219 215 196 214 219 153 195 156 230 274 300 285 267 243 257 255 243 236 242 236 234 233 234 229 227 222 220 217 221 220 224 220 207 199 194 194 193 193 190 191 194 194 194 192 193 195 195 190 184 185 189 190 190 186 174 174 180 184 198 209 211 190 189 206 203 204 211 215 214 204 201 199 192
219 152 152 177 173 183 181 187 197 193 212 216 227 227 217 209 216 214 126 162 204 261 196 155 321 264 200 224 235 236 230 227 225 230 228 229 230 228 228 228 226 226 221 219 219 210 202 200 200 200 197 195 197 198 197 194 192 193 195 193 192 191 185 187 187 184 180 186 182 177 184 198 205 210 204 203 201 196 201 208 206 208 211 210 204 198
190 161 164 173 177 184 192 195 193 187 204 209 212 217 234 225 216 198 142 153 229 234 223 162 210 276 134 233 223 232 234 229 215 220 227 227 228 227 229 230 227 225 228 231 230 220 204 206 201 202 200 201 200 201 195 191 194 195 193 193 192 193 193 186 183 181 182 186 189 189 193 197 201 206 215 215 202 200 207 198 202 207 208 212 211 212
164 178 173 172 179 186 194 203 191 189 199 226 157 191 224 249 236 235 186 182 249 40 52 255 216 280 278 237 277 287 252 226 210 213 221 223 225 228 231 231 228 226 225 223 225 225 220 208 204 205 204 200 203 199 192 194 194 195 195 194 194 194 194 191 181 182 185 189 189 189 194 198 204 209 214 206 208 202 193 197 202 202 207 208 211 214
183 174 180 177 184 188 201 195 172 188 201 210 154 167 204 220 256 197 217 227 84 64 261 196 213 304 256 201 193 223 257 260 245 203 208 211 216 228 231 233 232 227 224 221 222 222 219 217 211 208 204 204 200 195 196 196 194 194 196 196 193 195 193 193 186 182 187 191 191 193 192 197 207 209 212 203 203 207 196 198 199 202 204 203 206 211
179 185 185 179 177 193 185 186 181 184 209 215 139 170 164 195 240 222 207 168 30 82 251 198 171 226 270 207 203 205 222 224 225 230 229 207 216 224 227 228 229 230 226 221 223 224 224 227 229 219 211 201 201 199 195 197 195 195 195 195 192 195 192 192 191 187 188 192 192 195 198 201 204 203 207 204 204 205 201 203 199 200 200 201 202 206
177 189 177 179 190 188 188 188 193 192 199 126 147 133 162 163 67 37 34 67 52 250 248 192 193 188 282 250 209 194 215 207 220 236 232 233 238 234 227 224 227 228 222 217 221 224 223 220 223 222 213 208 202 198 194 196 199 198 193 193 195 195 193 192 193 191 191 192 193 199 201 204 204 201 201 201 209 204 201 206 203 196 200 198 203 201
169 173 186 194 184 191 174 186 200 196 179 148 162 143 86 6 55 32 14 55 206 246 253 163 204 179 232 292 175 196 203 192 200 215 218 220 233 236 232 233 231 217 212 214 209 219 221 219 219 216 221 213 203 192 195 199 197 197 196 190 194 197 196 194 194 193 194 192 196 201 203 205 208 202 199 204 206 203 204 205 205 199 191 200 202 202
199 192 176 190 197 184 180 182 186 181 179 174 144 150 166 181 142 215 135 207 206 231 355 168 165 208 229 240 331 306 336 179 203 216 221 230 249 251 231 213 207 202 203 205 209 209 210 210 211 212 219 214 200 197 196 197 195 194 195 193 192 198 197 196 193 193 195 194 196 200 204 207 207 206 205 206 208 205 207 204 203 197 203 197 199 205
210 197 184 185 180 201 180 181 160 190 190 186 174 175 179 175 185 207 191 273 275 249 241 102 170 265 277 287 227 245 260 261 258 253 258 246 247 255 232 215 210 208 202 207 204 205 206 205 205 202 206 208 205 200 197 196 193 194 197 197 197 200 196 196 195 196 196 198 200 202 204 206 203 207 209 209 208 206 208 204 205 204 204 203 207 204
173 207 208 163 208 166 201 191 183 186 180 195 170 182 193 184 182 184 182 202 210 234 171 216 82 223 181 237 159 222 222 232 239 245 248 248 229 234 249 256 236 233 234 206 215 212 200 197 193 198 200 204 206 203 197 192 194 194 199 200 201 199 199 197 197 197 200 201 204 204 204 205 203 206 209 212 209 205 205 205 206 207 205 207 209 208
207 225 154 189 172 176 198 192 183 141 180 200 184 155 204 208 117 211 191 210 209 180 198 196 216 259 208 333 316 318 18 249 226 235 240 251 241 238 252 248 239 234 231 206 206 223 219 201 194 196 204 204 201 201 194 195 194 196 200 199 201 200 198 197 197 200 201 203 204 204 202 204 203 205 207 211 213 211 204 204 205 207 206 209 207 205
171 222 151 182 197 186 189 185 190 156 196 179 176 206 195 23 217 210 18 340 62 37 253 182 270 261 290 277 260 271 269 257 238 233 239 246 241 235 239 241 239 231 223 209 208 214 220 224 224 211 206 207 205 200 196 197 197 199 199 200 202 205 203 200 200 201 201 206 204 204 204 201 202 204 206 209 209 207 204 202 206 208 209 206 204 200
185 209 170 174 198 208 191 190 173 187 161 155 206 189 89 45 74 181 213 156 186 223 251 182 229 253 155 278 215 210 221 230 234 236 233 237 234 234 236 236 232 225 216 215 214 213 214 214 216 217 218 210 205 202 202 201 198 198 199 199 201 203 205 203 199 201 203 203 205 206 207 206 204 206 210 212 212 207 204 207 206 204 205 208 202 195
170 174 316 213 179 180 141 157 220 218 345 215 199 136 165 188 209 195 169 223 197 220 244 232 225 244 192 239 5 176 218 214 225 236 246 253 242 243 242 232 226 218 217 215 217 215 216 215 213 210 212 216 214 209 207 207 199 196 199 202 202 203 204 202 200 201 204 202 205 207 209 209 209 208 209 210 208 203 207 210 207 203 204 196 192 190
191 182 93 239 187 142 146 162 196 190 244 307 135 175 210 317 212 177 201 237 202 233 227 254 198 250 206 239 223 249 201 207 211 221 227 234 233 238 238 212 216 219 214 212 212 211 213 216 212 206 206 207 210 211 210 205 201 203 203 200 206 209 207 205 205 198 201 202 204 207 207 208 210 210 209 205 201 204 208 209 206 205 198 199 185 194
195 184 209 174 280 155 199 189 190 178 184 198 182 187 181 214 247 204 208 210 178 210 229 284 270 239 244 193 204 212 215 206 207 212 221 230 238 243 245 227 216 213 211 207 205 209 214 219 212 202 193 193 202 204 196 188 196 204 198 203 204 204 205 204 203 200 205 201 204 202 204 207 205 208 206 202 201 206 209 207 202 201 197 176 197 189
193 196 193 142 204 219 196 182 194 190 187 190 187 194 189 176 171 186 217 191 220 186 218 214 251 264 227 164 204 207 212 215 203 206 215 221 224 221 227 223 172 150 183 196 205 205 203 200 182 158 116 79 114 170 188 201 190 196 199 202 199 200 205 204 206 203 201 199 198 202 204 204 201 202 200 201 202 206 207 206 200 193 184 197 199 190
158 110 165 181 199 196 200 196 230 204 190 199 191 198 185 188 171 196 203 196 196 228 246 251 306 259 141 349 148 198 208 212 208 185 196 204 212 210 160 140 136 145 161 169 177 194 205 203 190 179 182 192 199 195 189 192 199 207 207 198 200 196 211 202 204 198 190 188 191 200 199 192 195 194 196 198 201 204 203 204 200 192 196 200 201 201
70 176 130 188 103 28 37 153 98 28 179 200 228 217 179 194 191 199 205 187 208 195 222 240 247 264 250 346 35 55 55 89 85 170 195 193 99 114 146 163 183 223 246 214 196 191 191 196 180 167 193 201 208 209 208 205 201 202 203 201 189 195 197 193 188 183 180 187 194 192 187 193 196 192 196 202 203 203 203 198 198 194 198 196 187 195
199 217 139 152 113 122 55 15 277 357 271 204 184 209 205 190 194 201 208 197 222 205 217 199 239 247 256 142 179 122 148 100 149 226 136 205 232 217 209 196 190 204 230 224 206 216 215 196 195 209 210 213 214 210 206 203 201 196 200 191 194 196 185 183 185 181 190 187 190 192 192 197 191 194 200 204 201 205 199 198 194 188 189 175 173 169
275 164 158 182 166 178 191 194 191 183 203 191 200 193 201 196 192 181 208 191 225 211 208 216 237 240 279 110 216 221 249 262 259 212 207 197 204 214 210 212 208 197 218 231 238 221 208 212 219 215 212 210 206 201 201 201 197 197 195 199 189 184 189 194 186 187 185 186 184 193 195 197 194 200 201 199 199 198 191 184 180 173 167 164 170 166
256 335 292 228 203 208 211 212 208 180 159 189 180 198 202 205 199 201 198 207 218 207 227 218 234 263 256 247 228 199 166 196 219 222 202 213 236 233 224 229 231 230 224 228 225 224 227 229 223 218 208 203 202 196 193 191 192 191 189 192 193 192 186 183 171 173 173 181 185 190 199 197 201 198 197 193 187 170 160 160 163 165 176 174 175 180
119 253 208 283 282 284 311 330 39 168 168 183 181 201 201 207 205 205 204 219 204 222 243 211 241 245 254 246 240 227 222 211 217 209 214 215 214 210 208 210 245 282 270 252 248 238 228 232 237 234 224 203 200 197 198 191 187 185 182 185 184 180 174 173 164 170 176 179 189 194 200 200 194 187 181 173 169 172 174 170 174 180 176 176 184 187
176 252 189 168 258 285 282 287 278 200 208 194 195 190 194 196 196 201 211 217 207 216 225 218 218 229 242 242 233 233 233 238 223 226 213 198 181 171 149 194 246 252 264 248 237 236 236 240 236 227 210 199 184 192 199 196 193 187 189 178 177 173 181 174 169 176 177 182 191 200 193 188 187 169 160 160 164 169 177 179 175 168 172 182 194 193
114 241 181 175 230 242 262 263 272 218 213 217 206 203 200 195 201 202 210 215 215 224 231 238 238 236 243 251 241 236 223 221 231 215 146 157 176 176 180 211 221 241 243 244 245 231 224 226 227 217 197 192 194 197 198 200 199 193 186 184 177 173 175 154 169 169 178 186 192 185 177 173 167 167 161 160 171 178 170 173 171 173 178 186 188 188
180 275 136 155 217 247 235 239 247 252 232 219 212 207 202 200 204 207 212 217 219 234 239 244 245 246 245 248 251 235 224 233 99 166 193 209 197 186 192 211 221 226 239 243 246 236 223 217 210 193 187 200 201 202 198 200 198 195 196 189 174 174 173 159 166 176 181 188 180 173 165 161 169 162 175 180 174 172 177 178 170 173 178 179 182 185
168 291 72 163 203 256 218 209 217 234 251 238 216 210 206 199 204 207 215 213 211 215 221 233 242 249 254 243 240 238 226 223 231 210 208 219 211 201 210 225 224 222 217 222 225 225 231 222 210 200 208 210 209 205 197 193 189 186 198 187 179 172 161 160 171 176 182 180 171 167 164 160 155 158 166 160 182 179 178 163 169 182 182 179 183 191
168 190 221 174 231 251 218 182 204 221 234 244 227 208 204 208 207 208 215 214 218 212 219 221 232 234 239 244 219 237 228 228 231 226 219 213 209 205 212 220 226 227 211 208 218 225 225 221 217 213 216 215 209 205 206 183 175 193 191 182 172 148 158 167 172 174 176 178 171 170 161 156 155 163 171 180 175 169 163 167 172 179 179 191 188 157
154 160 214 33 264 272 241 177 192 208 226 235 197 210 204 205 204 209 212 214 219 210 218 218 231 244 256 247 221 239 224 218 227 231 216 218 223 224 222 224 227 221 210 210 215 225 226 226 215 210 210 214 213 201 191 181 183 182 168 156 149 154 166 167 179 179 180 174 175 171 166 165 167 173 175 169 166 165 166 168 180 177 169 148 133 155
179 175 219 153 295 289 342 172 211 227 235 200 196 213 229 227 219 217 222 220 224 224 232 247 250 252 241 228 224 240 236 230 223 225 227 222 218 220 220 227 232 217 213 218 231 242 227 217 217 212 227 235 223 194 165 181 161 145 140 151 155 166 166 181 175 186 183 178 173 168 170 171 173 173 168 166 163 162 166 166 160 159 160 158 166 168
183 185 173 202 198 264 270 236 252 261 326 343 78 146 200 239 238 236 238 235 228 222 218 229 235 238 241 234 238 231 220 231 255 245 233 229 222 216 208 218 221 211 216 218 207 223 232 209 205 202 218 220 174 184 165 169 151 142 161 153 158 164 175 175 183 186 177 175 174 175 175 169 170 167 166 165 163 164 167 165 164 164 161 147 151 147
191 181 184 233 173 238 250 249 258 327 317 200 164 190 173 199 211 211 223 229 222 217 211 226 240 248 249 234 239 238 266 298 262 253 232 218 208 204 209 219 207 211 219 224 209 217 225 222 204 203 181 168 182 176 180 154 144 141 144 158 164 162 168 172 187 193 184 183 182 181 173 165 162 164 163 164 165 169 166 162 163 158 154 147 159 159
200 200 166 204 217 194 242 260 270 269 267 244 222 229 204 206 206 211 223 255 244 229 221 221 233 240 239 234 236 225 159 265 262 256 238 199 172 205 225 221 215 215 214 216 219 223 225 227 216 200 170 173 180 191 166 155 147 146 156 177 167 164 179 185 205 193 187 193 186 179 169 164 162 162 162 164 169 166 168 166 158 164 169 159 159 167
205 197 189 196 225 195 207 233 234 243 253 219 225 246 249 244 233 65 289 253 246 204 208 218 235 243 240 236 228 118 154 228 247 249 246 140 182 196 214 224 224 221 218 212 204 212 218 212 187 190 172 157 180 189 156 152 150 152 179 179 180 178 190 213 211 191 194 191 173 170 167 164 164 164 164 168 169 167 167 172 173 164 157 145 146 146
198 203 202 212 213 218 226 227 236 210 251 240 197 223 205 199 149 129 223 241 245 218 212 211 225 237 235 227 187 163 199 234 240 253 122 158 176 195 199 220 227 224 226 224 227 223 207 184 146 145 174 180 200 171 154 153 156 174 180 189 164 183 211 222 213 189 165 159 163 163 163 166 165 166 167 169 168 171 170 164 145 147 149 139 135 132
199 201 200 214 208 218 212 236 263 263 250 243 201 179 161 117 123 197 221 231 262 132 203 224 233 237 230 221 180 208 219 225 238 221 161 177 189 196 210 217 220 214 221 227 225 198 188 193 185 190 197 207 187 155 158 151 159 180 193 176 175 202 219 197 147 158 159 154 155 160 164 164 165 160 161 158 162 159 143 147 143 134 136 132 122 116
206 199 208 203 215 215 212 217 234 257 250 223 198 186 133 107 204 211 225 218 100 156 206 212 228 237 219 213 209 222 236 238 246 200 211 197 192 200 211 218 222 224 231 226 202 184 198 192 203 208 215 209 172 166 160 160 170 192 180 178 203 219 174 142 148 140 148 155 156 157 157 154 142 144 148 144 136 134 127 120 124 134 135 125 125 124
192 197 186 202 208 225 214 219 218 240 248 180 173 179 170 187 218 217 228 21 260 218 210 217 220 233 210 220 217 220 232 236 239 225 218 230 219 222 222 225 221 217 223 223 220 208 192 200 206 206 206 196 179 168 173 165 182 192 187 192 215 179 144 142 137 138 141 143 146 147 141 137 136 134 132 134 135 130 123 120 116 112 115 117 109 108
162 210 209 216 184 214 212 210 222 207 252 168 146 200 194 209 91 173 208 240 235 197 187 226 230 224 219 224 228 230 236 240 241 240 224 233 237 237 237 227 214 214 216 214 208 204 190 201 201 205 202 175 170 171 170 175 190 192 187 213 139 128 127 127 127 129 131 134 136 131 131 130 125 121 121 129 127 124 127 124 119 116 122 124 125 122
168 212 181 208 195 212 212 219 214 232 210 155 201 209 178 218 225 219 192 215 217 226 207 221 228 221 211 222 231 232 241 237 238 235 224 225 232 234 234 233 229 220 209 208 213 200 189 194 195 188 156 145 147 147 161 173 180 178 191 184 133 130 128 120 121 126 132 133 134 132 130 122 122 124 126 134 138 134 137 132 136 125 127 129 126 131
188 202 197 216 215 215 231 218 212 230 214 227 205 187 198 212 218 217 214 231 223 206 179 200 212 212 216 217 225 236 233 237 238 243 235 232 236 241 236 237 242 243 205 202 202 188 192 183 164 154 154 140 144 140 147 148 158 171 177 134 121 120 116 120 120 125 131 134 132 134 134 125 123 127 135 140 145 147 151 148 147 139 143 141 144 149
205 195 205 223 177 190 231 215 234 232 230 229 215 217 218 212 216 210 222 223 206 178 192 206 197 217 224 226 226 231 236 237 238 239 235 234 236 237 228 222 229 230 205 191 190 157 152 157 158 167 167 170 169 142 139 128 119 133 132 128 121 119 121 118 124 126 133 134 133 134 138 137 140 139 140 141 136 137 145 147 145 144 151 156 155 158
237 191 209 214 205 209 221 195 220 227 232 229 207 212 220 227 224 215 216 222 200 188 176 205 184 224 203 226 232 238 248 256 260 264 271 259 244 238 233 224 224 225 219 182 160 167 163 172 179 178 172 166 162 150 148 140 140 143 135 133 133 131 129 131 138 143 145 147 144 145 148 143 141 141 141 148 145 145 147 154 156 157 165 170 168 165
207 150 223 183 213 224 227 228 220 228 233 231 212 212 218 221 220 219 216 204 175 188 219 230 200 206 196 227 239 240 253 260 243 238 248 243 240 234 229 223 209 196 166 159 179 174 181 183 181 173 159 151 151 145 138 131 131 140 141 142 142 141 136 138 139 140 142 143 144 144 146 143 148 145 144 143 142 140 146 157 164 155 156 178 168 169
217 220 194 180 225 215 211 215 202 228 228 229 229 221 224 224 221 218 204 193 198 208 215 222 236 221 215 230 231 226 232 251 258 213 231 229 227 226 216 196 182 178 184 172 143 155 144 154 156 149 144 140 146 142 139 136 136 135 141 143 146 144 139 140 141 141 140 149 148 147 145 146 144 148 148 150 147 138 102 39 72 107 148 162 127 119
228 217 189 220 213 217 207 217 217 225 234 225 223 229 228 215 202 203 203 213 219 215 209 209 223 236 239 246 222 220 234 235 249 231 235 237 230 215 201 187 177 170 159 149 140 151 152 151 143 134 129 139 138 131 130 129 131 134 143 149 147 145 140 142 140 143 141 150 153 154 151 147 149 151 154 151 149 144 142 135 83 66 72 83 110 118